Regional Weather Roundup
Issued by NWS Cleveland, OH

Home | Current Version | Previous Version | Graphics & Text | Print | Product List | Glossary On
Versions: 1 2 3 4 5 6 7 8 9 10 11 12 13 14 15 16 17 18 19 20 21 22 23 24 25 26 27 28 29 30 31 32 33 34 35 36 37 38 39 40 41 42 43 44 45 46 47 48 49 50
000
ASUS41 KCLE 271402
RWRCLE
OHIO REGIONAL WEATHER ROUNDUP
NATIONAL WEATHER SERVICE CLEVELAND, OH
900 AM EST TUE JAN 27 2015

NOTE: "FAIR" INDICATES FEW OR NO CLOUDS BELOW 12,000 FEET WITH NO
SIGNIFICANT WEATHER AND/OR OBSTRUCTIONS TO VISIBILITY.

OHZ001>008-015>018-024>027-034-035-043-044-271500-
   NORTHWEST OHIO

CITY           SKY/WX    TMP DP  RH WIND       PRES   REMARKS
DEFIANCE       MOCLDY    16  10  77 N3        30.10R
FINDLAY        CLOUDY    15  10  80 N7        30.06R WCI   5
TOLEDO EXPRESS MOSUNNY   14  10  84 NE5       30.08R WCI   6
TOLEDO EXEC    PTSUNNY   14   8  77 CALM      30.09R
LIMA           CLOUDY    13   8  81 NW5       30.05R HAZE    WCI   5
$$

OHZ009>014-019>023-028>033-038-089-271500-
   NORTHEAST OHIO

CITY           SKY/WX    TMP DP  RH WIND       PRES   REMARKS
CLE-HOPKINS    LGT SNOW  18  14  84 N14       30.04R WCI   4
CLE-LAKEFRONT  LGT SNOW  19  14  81 N14       30.03R WCI   6
CUY CO. ARPT   NOT AVBL
LORAIN-ELYRIA  LGT SNOW  17  13  84 N9        30.03R FOG     WCI   6
ASHTABULA      LGT SNOW  18  14  84 VRB6      29.99R FOG     WCI  10
AKRON-CANTON   LGT SNOW  18  12  77 N10       29.96R WCI   6
WOOSTER        LGT SNOW  17  14  88 N8        29.98R FOG     WCI   7
MANSFIELD      LGT SNOW  13  10  88 NW6       29.98R FOG     WCI   4
YOUNGSTOWN     LGT SNOW  17  14  88 N10       29.94R FOG     WCI   5
$$

OHZ042-051>053-060>062-070>072-077>081-271500-
  SOUTHWEST OHIO

CITY           SKY/WX    TMP DP  RH WIND       PRES   REMARKS
CINC-COVINGTON PTSUNNY   21  13  71 NE7       30.03R WCI  12
CINC-LUNKEN    MOSUNNY   20  13  74 NE6       30.08R WCI  12
HAMILTON       PTSUNNY   19  12  74 NE6       30.08R WCI  11
DAYTON         CLOUDY    16  11  80 N5        30.05R WCI   9
WRIGHT-PAT AFB CLOUDY    14  10  83 E2        30.05R
DAYTON GENERAL MOSUNNY   16  11  80 NE6       30.03R WCI   7
WILMINGTON     FAIR      14   9  80 NE6       30.01R HAZE    WCI   5
$$

OHZ036-037-039>041-045>050-054>059-063>069-073>076-082>088-271500-
  CENTRAL AND SOUTHEAST OHIO

CITY           SKY/WX    TMP DP  RH WIND       PRES   REMARKS
COLUMBUS       FLURRIES  12   8  84 N6        30.02S WCI   3
OSU AIRPORT    PTSUNNY    9   6  88 N3        30.02R FOG
BOLTON FIELD   LGT SNOW   7   3  85 NW5       30.03R WCI  -2
RICKENBACK AFB NOT AVBL
NEWARK         PTSUNNY   13   9  84 N5        30.00R WCI   5
MARION         CLOUDY     5   3  91 CALM      30.02S FOG
LANCASTER      CLOUDY     8   6  92 CALM      30.02S FOG
ZANESVILLE     CLOUDY    15  10  80 NW6       30.00R HAZE    WCI   6
NEW PHILLY     LGT SNOW  19  13  77 NW7       29.99R WCI  10
$$


USA.gov is the U.S. government's official web portal to all federal, state and local government web resources and services.